Tracking 28920 objects as of 27-May-2024
HD Live streaming from Space Station
objects crossing your sky now

NINGXIA-1 1

Track NINGXIA-1 1 now!
10-day predictions


NORAD ID: 44779
Int'l Code: 2019-076A
Perigee: 886.6 km
Apogee: 902.6 km
Inclination: 45.0 °
Period: 102.7 minutes
Semi major axis: 7265 km
RCS: Unknown
Launch date: November 13, 2019
Source: People's Republic of China (PRC)
Launch site: Taiyaun Space Center, China (TSC)
Your satellite tracking list
Your tracking list is empty




NASA's NSSDC Master Catalog

Two Line Element Set (TLE):
1 44779U 19076A   24147.86292646  .00000036  00000-0  10802-3 0  9998
2 44779  45.0075 296.8881 0010993 203.5527 156.4804 14.01839132232425
Source of the keplerian elements: AFSPC